Starlink 6085

operational
NORAD ID: 57115 Int'l Des: 2023-090 Owner: SPXS Country: US Constellation: starlink
LEOCIRCULAR

Über Starlink 6085

Beschreibung wird geladen...

Live-Position

3D-Globus wird geladen...

Nächste Überflüge

Höhenverlauf

Altitude vs Time

uPlot chart will show altitude changes over time

Zweizeiliger Elementsatz

1 57115U 23090Q 25303.90696007 .00008066 00000-0 53505-3 0 9994
2 57115 42.9999 257.0654 0008610 94.6260 265.5568 15.07530184130920
Epoch: 30. Okt. 2025 • Age: 23 hours

Aktueller Status

Höhe 540.2 km
Geschwindigkeit 7.60 km/s
Subsatellitenpunkt 9.82°N, 69.38°E
Startdatum 23. Juni 2023
Alter 2.3 years
Typ internet

Technische Details

Klassifizierung Payload
Masse 305.00 kg
Trockenmasse 290.00 kg
Gesamtmasse 305.00 kg
Länge 0.20 m
Durchmesser 2.80 m
Spannweite 9.00 m
Form Box + pan
Hersteller SPXS
Bus-Typ Starlink
Phasenstatus In Orbit
Besitzer/Staat SPXS/US

Große Konstellationen

Loading constellations...